Location: Unspecified
(0.0000°N, 0.0000°E)
Time: 12:24:41
(UTC+02:00)

Transit 2A - Visible Passes

Search period start: 24 April 2018 00:00
Search period end: 04 May 2018 00:00
Orbit: 598 x 961 km, 66.7° (Epoch: 23 April)

Date Brightness Start Highest point End Pass type
(mag) Time Alt. Az. Time Alt. Az. Time Alt. Az.
24 Apr 7.3 06:40:30 10° S 06:46:39 51° ESE 06:52:40 10° NE visible
25 Apr 8.0 06:07:00 10° S 06:12:36 33° ESE 06:18:06 10° NE visible
26 Apr 8.6 05:34:06 10° SSE 05:38:33 21° ESE 05:43:04 10° ENE visible
26 Apr 7.0 07:15:48 10° SW 07:21:36 37° WNW 07:27:14 10° N visible
27 Apr 9.0 05:02:28 11° SE 05:04:28 13° ESE 05:07:01 10° E visible
27 Apr 6.5 06:43:04 19° SW 06:47:35 59° WNW 06:53:39 10° N visible
28 Apr 6.3 06:11:19 44° SSW 06:13:34 89° ESE 06:19:46 10° NNE visible
29 Apr 6.9 05:39:27 57° ESE 05:39:32 57° ESE 05:45:36 10° NNE visible
29 Apr 8.1 07:20:01 10° W 07:22:31 13° WNW 07:25:05 10° NW visible
30 Apr 8.0 05:07:26 30° ENE 05:07:26 30° ENE 05:11:07 10° NE visible
30 Apr 7.6 06:48:00 21° WNW 06:48:28 21° WNW 06:52:58 10° NNW visible
01 May 9.0 04:35:17 13° ENE 04:35:17 13° ENE 04:36:13 10° ENE visible
01 May 7.4 06:15:50 30° NW 06:15:50 30° NW 06:19:55 10° N visible
02 May 7.7 05:43:34 28° N 05:43:34 28° N 05:46:25 10° N visible
03 May 8.5 05:11:10 18° NNE 05:11:10 18° NNE 05:12:36 10° NNE visible
